Regional Weather Roundup
Issued by NWS State College, PA

Home | Current Version | Previous Version | Text Only | Print | Product List | Glossary Off
Versions: 1 2 3 4 5 6 7 8 9 10 11 12 13 14 15 16 17 18 19 20 21 22 23 24 25 26 27 28 29 30 31 32 33 34 35 36 37 38 39 40 41 42 43 44 45 46 47 48 49 50

000
ASUS41 KCTP 261310
RWRCTP

REGIONAL WEATHER ROUNDUP
NATIONAL WEATHER SERVICE STATE COLLEGE PA
900 AM EDT THU MAY 26 2016

Note: "fair" indicates few or no clouds below 12,000 feet with no
significant weather and/or obstructions to visibility.

* = STATION THAT DOES NOT REPORT PRECIPITATION /E.G. RAIN...SNOW...ETC/
    THUNDER OR FOG.

PAZ002>004-007>009-013>016-020>023-029>032-261400-
WESTERN PENNSYLVANIA

CITY           SKY/WX    TMP DP  RH WIND       PRES   REMARKS
ERIE           MOSUNNY   75  61  61 S12       30.03F
MEADVILLE      PTSUNNY   68  60  75 VRB6      30.08F
FRANKLIN*      PTSUNNY   68  57  68 S7        30.13S
NEW CASTLE     FAIR      72  62  71 VRB3      30.10S
BEAVER COUNTY  PTSUNNY   68  61  77 S6        30.10F
BUTLER*        CLOUDY    70  57  64 S6        30.14S
PITTSBURGH INT CLOUDY    70  58  65 S5        30.11S
PITTSBURGH     CLOUDY    68  57  68 S9        30.12S
INDIANA*       MOSUNNY   72  59  64 W5        30.16F
LATROBE        PTSUNNY   73  59  60 SW7       30.14F
WASHINGTON CO* CLOUDY    66  59  77 S5        30.14S
$$

PAZ004>006-010>012-017>019-024>028-033>037-041-042-045-046-049>053-261400-
CENTRAL PENNSYLVANIA

CITY           SKY/WX    TMP DP  RH WIND       PRES   REMARKS
BRADFORD       CLOUDY    64  57  78 SE6       30.14F
DUBOIS         CLOUDY    67  56  67 E3        30.13F
CLEARFIELD     CLOUDY    67  53  61 N3        30.14F
JOHNSTOWN      CLOUDY    70  52  52 S6        30.17S
ALTOONA        MOSUNNY   71  52  50 CALM      30.15F
STATE COLLEGE  MOSUNNY   68  55  64 CALM      30.14F
WILLIAMSPORT   CLOUDY    62  54  74 CALM      30.12F
SELINSGROVE    MOSUNNY   64  57  78 CALM      30.14S
FT INDIANTOWN  CLOUDY    65  60  81 CALM      30.14S
CAPITAL CITY   CLOUDY    70  57  63 CALM      30.13S
HARRISBURG     CLOUDY    68  59  73 CALM      30.12F
YORK           MOSUNNY   70  59  68 CALM      30.13F HAZE
$$

PAZ038>040-043-044-047-048-054-055-060>062-067>071-261400-
EASTERN PENNSYLVANIA

CITY           SKY/WX    TMP DP  RH WIND       PRES   REMARKS
SCRANTON       CLOUDY    66  55  67 CALM      30.15R
MOUNT POCONO   CLOUDY    71  51  49 NW3       30.17F
ALLENTOWN      PTSUNNY   72  56  57 CALM      30.13S
QUAKERTOWN*    MOSUNNY   75  57  53 CALM      30.14F
READING        PTSUNNY   73  58  59 CALM      30.12F
LANCASTER      SUNNY     72  59  63 N3        30.14R
COATESVILLE    CLOUDY    72  55  56 CALM      30.16S
POTTSTOWN      MOSUNNY   72  58  61 CALM      30.15S
BLUE BELL      SUNNY     73  59  60 SW3       30.13S
DOYLESTOWN     SUNNY     73  53  49 VRB3      30.12F
WILLOW GROVE   NOT AVBL
NORTH PHILA    SUNNY     77  59  53 SW6       30.14F
PHILADELPHIA   PTSUNNY   72  58  61 SW6       30.14S
$$




USA.gov is the U.S. government's official web portal to all federal, state and local government web resources and services.